Time,TemperatureF,DewpointF,PressureIn,WindDirection,WindDirectionDegrees,WindSpeedMPH,WindSpeedGustMPH,Humidity,HourlyPrecipIn,Conditions,Clouds,dailyrainin,SolarRadiationWatts/m^2,SoftwareType,DateUTC
2013-06-18 00:12:00,86.0,45.0,-100.00,NNW,342,0.0,4.0,24,0.00,,,0.00,0.000000,,2013-06-18 07:12:00,
2013-06-18 00:22:00,86.0,45.0,-100.00,NNW,342,0.0,4.0,24,0.00,,,0.00,0.000000,,2013-06-18 07:22:00,
2013-06-18 00:33:00,86.0,45.0,-100.00,NNW,342,0.0,4.0,24,0.00,,,0.00,0.000000,,2013-06-18 07:33:00,
2013-06-18 00:43:00,86.0,45.0,-100.00,NNW,342,0.0,4.0,24,0.00,,,0.00,0.000000,,2013-06-18 07:43:00,
2013-06-18 00:52:00,85.0,43.0,-100.00,SSW,210,0.0,5.0,23,0.00,,,0.00,0.000000,,2013-06-18 07:52:00,
2013-06-18 01:23:00,85.0,43.0,-100.00,SSW,210,0.0,5.0,23,0.00,,,0.00,0.000000,,2013-06-18 08:23:00,
2013-06-18 01:32:00,85.0,43.0,-100.00,SSW,210,0.0,5.0,23,0.00,,,0.00,0.000000,,2013-06-18 08:32:00,
2013-06-18 01:43:00,85.0,43.0,-100.00,SSW,210,0.0,5.0,23,0.00,,,0.00,0.000000,,2013-06-18 08:43:00,
2013-06-18 01:52:00,82.0,46.0,-100.00,WNW,285,0.0,4.0,28,0.00,,,0.00,0.000000,,2013-06-18 08:52:00,
2013-06-18 02:12:00,82.0,46.0,-100.00,WNW,285,0.0,4.0,28,0.00,,,0.00,0.000000,,2013-06-18 09:12:00,
2013-06-18 02:22:00,82.0,46.0,-100.00,WNW,285,0.0,4.0,28,0.00,,,0.00,0.000000,,2013-06-18 09:22:00,
2013-06-18 02:34:00,82.0,46.0,-100.00,WNW,285,0.0,4.0,28,0.00,,,0.00,0.000000,,2013-06-18 09:34:00,
2013-06-18 02:42:00,82.0,46.0,-100.00,WNW,285,0.0,4.0,28,0.00,,,0.00,0.000000,,2013-06-18 09:42:00,
2013-06-18 02:52:00,79.0,43.0,-100.00,WSW,249,0.0,4.0,28,0.00,,,0.00,0.000000,,2013-06-18 09:52:00,
2013-06-18 03:22:00,79.0,43.0,-100.00,WSW,249,0.0,4.0,28,0.00,,,0.00,0.000000,,2013-06-18 10:22:00,
2013-06-18 03:33:00,79.0,43.0,-100.00,WSW,249,0.0,4.0,28,0.00,,,0.00,0.000000,,2013-06-18 10:33:00,
2013-06-18 03:43:00,79.0,43.0,-100.00,WSW,249,0.0,4.0,28,0.00,,,0.00,0.000000,,2013-06-18 10:43:00,
2013-06-18 03:52:00,78.0,43.0,-100.00,NNW,340,0.0,4.0,29,0.00,,,0.00,0.000000,,2013-06-18 10:52:00,
2013-06-18 04:22:00,78.0,43.0,-100.00,NNW,340,0.0,4.0,29,0.00,,,0.00,0.000000,,2013-06-18 11:22:00,
2013-06-18 04:32:00,78.0,43.0,-100.00,NNW,340,0.0,4.0,29,0.00,,,0.00,0.000000,,2013-06-18 11:32:00,
2013-06-18 04:42:00,78.0,43.0,-100.00,NNW,340,0.0,4.0,29,0.00,,,0.00,0.000000,,2013-06-18 11:42:00,
2013-06-18 04:52:00,78.0,39.0,-100.00,WSW,239,0.0,4.0,25,0.00,,,0.00,0.000000,,2013-06-18 11:52:00,
2013-06-18 05:22:00,78.0,39.0,-100.00,WSW,239,0.0,4.0,25,0.00,,,0.00,0.000000,,2013-06-18 12:22:00,
2013-06-18 05:32:00,78.0,39.0,-100.00,WSW,239,0.0,4.0,25,0.00,,,0.00,0.000000,,2013-06-18 12:32:00,
2013-06-18 05:42:00,78.0,39.0,-100.00,WSW,239,0.0,4.0,25,0.00,,,0.00,0.000000,,2013-06-18 12:42:00,
2013-06-18 05:52:00,78.0,44.0,-100.00,West,280,0.0,4.0,30,0.00,,,0.00,2.000000,,2013-06-18 12:52:00,
2013-06-18 06:12:00,78.0,44.0,-100.00,West,280,0.0,4.0,30,0.00,,,0.00,2.000000,,2013-06-18 13:12:00,
2013-06-18 06:22:00,78.0,44.0,-100.00,West,280,0.0,4.0,30,0.00,,,0.00,2.000000,,2013-06-18 13:22:00,
2013-06-18 06:33:00,78.0,44.0,-100.00,West,280,0.0,4.0,30,0.00,,,0.00,2.000000,,2013-06-18 13:33:00,
2013-06-18 06:43:00,78.0,44.0,-100.00,West,280,0.0,4.0,30,0.00,,,0.00,2.000000,,2013-06-18 13:43:00,
2013-06-18 07:11:00,86.0,45.0,-100.00,WSW,253,0.0,4.0,24,0.00,,,0.00,128.000000,,2013-06-18 14:11:00,
2013-06-18 08:52:00,93.0,38.0,-100.00,East,87,3.0,7.0,15,0.00,,,0.00,611.000000,,2013-06-18 15:52:00,
2013-06-18 09:22:00,93.0,38.0,-100.00,East,87,3.0,7.0,15,0.00,,,0.00,611.000000,,2013-06-18 16:22:00,
2013-06-18 09:33:00,93.0,38.0,-100.00,East,87,3.0,7.0,15,0.00,,,0.00,611.000000,,2013-06-18 16:33:00,
2013-06-18 09:43:00,93.0,38.0,-100.00,East,87,3.0,7.0,15,0.00,,,0.00,611.000000,,2013-06-18 16:43:00,
2013-06-18 09:52:00,95.0,36.0,-100.00,ENE,59,5.0,8.0,13,0.00,,,0.00,838.000000,,2013-06-18 16:52:00,
2013-06-18 10:11:00,95.0,36.0,-100.00,ENE,59,5.0,8.0,13,0.00,,,0.00,838.000000,,2013-06-18 17:11:00,
2013-06-18 10:22:00,95.0,36.0,-100.00,ENE,59,5.0,8.0,13,0.00,,,0.00,838.000000,,2013-06-18 17:22:00,
2013-06-18 10:33:00,95.0,36.0,-100.00,ENE,59,5.0,8.0,13,0.00,,,0.00,838.000000,,2013-06-18 17:33:00,
2013-06-18 10:43:00,95.0,36.0,-100.00,ENE,59,5.0,8.0,13,0.00,,,0.00,838.000000,,2013-06-18 17:43:00,
2013-06-18 10:52:00,98.0,35.0,-100.00,NE,47,4.0,8.0,11,0.00,,,0.00,1028.000000,,2013-06-18 17:52:00,
2013-06-18 11:11:00,98.0,35.0,-100.00,NE,47,4.0,8.0,11,0.00,,,0.00,1028.000000,,2013-06-18 18:11:00,
2013-06-18 11:22:00,98.0,35.0,-100.00,NE,47,4.0,8.0,11,0.00,,,0.00,1028.000000,,2013-06-18 18:22:00,
2013-06-18 11:33:00,98.0,35.0,-100.00,NE,47,4.0,8.0,11,0.00,,,0.00,1028.000000,,2013-06-18 18:33:00,
2013-06-18 11:42:00,98.0,35.0,-100.00,NE,47,4.0,8.0,11,0.00,,,0.00,1028.000000,,2013-06-18 18:42:00,
2013-06-18 11:52:00,100.0,31.0,-100.00,ENE,78,6.0,13.0,9,0.00,,,0.00,1152.000000,,2013-06-18 18:52:00,
2013-06-18 12:22:00,100.0,31.0,-100.00,ENE,78,6.0,13.0,9,0.00,,,0.00,1152.000000,,2013-06-18 19:22:00,
2013-06-18 12:33:00,100.0,31.0,-100.00,ENE,78,6.0,13.0,9,0.00,,,0.00,1152.000000,,2013-06-18 19:33:00,
2013-06-18 12:43:00,100.0,31.0,-100.00,ENE,78,6.0,13.0,9,0.00,,,0.00,1152.000000,,2013-06-18 19:43:00,
2013-06-18 12:52:00,102.0,32.0,-100.00,ESE,103,6.0,12.0,9,0.00,,,0.00,1210.000000,,2013-06-18 19:52:00,
2013-06-18 13:23:00,102.0,32.0,-100.00,ESE,103,6.0,12.0,9,0.00,,,0.00,1210.000000,,2013-06-18 20:23:00,
2013-06-18 13:33:00,102.0,32.0,-100.00,ESE,103,6.0,12.0,9,0.00,,,0.00,1210.000000,,2013-06-18 20:33:00,
2013-06-18 13:43:00,102.0,32.0,-100.00,ESE,103,6.0,12.0,9,0.00,,,0.00,1210.000000,,2013-06-18 20:43:00,
2013-06-18 14:11:00,104.0,31.0,-100.00,ENE,76,4.0,12.0,8,0.00,,,-99.99,1201.000000,,2013-06-18 21:11:00,
2013-06-18 14:22:00,104.0,31.0,-100.00,ENE,76,4.0,12.0,8,0.00,,,-99.99,1201.000000,,2013-06-18 21:22:00,
2013-06-18 14:33:00,104.0,31.0,-100.00,ENE,76,4.0,12.0,8,0.00,,,-99.99,1201.000000,,2013-06-18 21:33:00,
2013-06-18 14:43:00,104.0,31.0,-100.00,ENE,76,4.0,12.0,8,0.00,,,-99.99,1201.000000,,2013-06-18 21:43:00,
2013-06-18 14:52:00,104.0,31.0,-100.00,East,96,5.0,11.0,8,0.00,,,0.00,1128.000000,,2013-06-18 21:52:00,
2013-06-18 15:22:00,104.0,31.0,-100.00,East,96,5.0,11.0,8,0.00,,,0.00,1128.000000,,2013-06-18 22:22:00,
2013-06-18 15:34:00,104.0,31.0,-100.00,East,96,5.0,11.0,8,0.00,,,0.00,1128.000000,,2013-06-18 22:34:00,
2013-06-18 15:42:00,104.0,31.0,-100.00,East,96,5.0,11.0,8,0.00,,,0.00,1128.000000,,2013-06-18 22:42:00,
2013-06-18 15:52:00,104.0,34.0,-100.00,East,91,6.0,14.0,9,0.00,,,0.00,985.000000,,2013-06-18 22:52:00,
2013-06-18 16:11:00,104.0,34.0,-100.00,East,91,6.0,14.0,9,0.00,,,0.00,985.000000,,2013-06-18 23:11:00,
2013-06-18 16:23:00,104.0,34.0,-100.00,East,91,6.0,14.0,9,0.00,,,0.00,985.000000,,2013-06-18 23:23:00,
2013-06-18 16:35:00,104.0,34.0,-100.00,East,91,6.0,14.0,9,0.00,,,0.00,985.000000,,2013-06-18 23:35:00,
2013-06-18 16:44:00,104.0,34.0,-100.00,East,91,6.0,14.0,9,0.00,,,0.00,985.000000,,2013-06-18 23:44:00,
2013-06-18 16:52:00,104.0,34.0,-100.00,ESE,120,5.0,19.0,9,0.00,,,0.00,787.000000,,2013-06-18 23:52:00,
2013-06-18 17:11:00,104.0,34.0,-100.00,ESE,120,5.0,19.0,9,0.00,,,0.00,787.000000,,2013-06-19 00:11:00,
2013-06-18 17:22:00,104.0,34.0,-100.00,ESE,120,5.0,19.0,9,0.00,,,0.00,787.000000,,2013-06-19 00:22:00,
2013-06-18 17:33:00,104.0,34.0,-100.00,ESE,120,5.0,19.0,9,0.00,,,0.00,787.000000,,2013-06-19 00:33:00,
2013-06-18 17:43:00,104.0,34.0,-100.00,ESE,120,5.0,19.0,9,0.00,,,0.00,787.000000,,2013-06-19 00:43:00,
2013-06-18 17:52:00,104.0,37.0,-100.00,NNE,29,7.0,12.0,10,0.00,,,0.00,132.000000,,2013-06-19 00:52:00,
2013-06-18 18:11:00,104.0,37.0,-100.00,NNE,29,7.0,12.0,10,0.00,,,0.00,132.000000,,2013-06-19 01:11:00,
2013-06-18 18:22:00,104.0,37.0,-100.00,NNE,29,7.0,12.0,10,0.00,,,0.00,132.000000,,2013-06-19 01:22:00,
2013-06-18 18:32:00,104.0,37.0,-100.00,NNE,29,7.0,12.0,10,0.00,,,0.00,132.000000,,2013-06-19 01:32:00,
2013-06-18 18:42:00,104.0,37.0,-100.00,NNE,29,7.0,12.0,10,0.00,,,0.00,132.000000,,2013-06-19 01:42:00,
2013-06-18 19:11:00,101.0,37.0,-100.00,WSW,249,4.0,14.0,11,0.00,,,0.00,45.000000,,2013-06-19 02:11:00,
2013-06-18 19:21:00,101.0,37.0,-100.00,WSW,249,4.0,14.0,11,0.00,,,0.00,45.000000,,2013-06-19 02:21:00,
2013-06-18 19:32:00,101.0,37.0,-100.00,WSW,249,4.0,14.0,11,0.00,,,0.00,45.000000,,2013-06-19 02:32:00,
2013-06-18 19:42:00,101.0,37.0,-100.00,WSW,249,4.0,14.0,11,0.00,,,0.00,45.000000,,2013-06-19 02:42:00,
2013-06-18 19:51:00,101.0,37.0,-100.00,WSW,249,4.0,14.0,11,0.00,,,0.00,45.000000,,2013-06-19 02:51:00,
2013-06-18 20:11:00,94.0,29.0,-100.00,SW,219,10.0,17.0,10,0.00,,,0.00,22.000000,,2013-06-19 03:11:00,
2013-06-18 20:21:00,94.0,29.0,-100.00,SW,219,10.0,17.0,10,0.00,,,0.00,22.000000,,2013-06-19 03:21:00,
2013-06-18 20:52:00,90.0,34.0,-100.00,ESE,119,2.0,16.0,14,0.00,,,0.00,1.000000,,2013-06-19 03:52:00,
2013-06-18 21:11:00,90.0,34.0,-100.00,ESE,119,2.0,16.0,14,0.00,,,0.00,1.000000,,2013-06-19 04:11:00,
2013-06-18 21:22:00,90.0,34.0,-100.00,ESE,119,2.0,16.0,14,0.00,,,0.00,1.000000,,2013-06-19 04:22:00,
2013-06-18 21:32:00,90.0,34.0,-100.00,ESE,119,2.0,16.0,14,0.00,,,0.00,1.000000,,2013-06-19 04:32:00,
2013-06-18 21:42:00,90.0,34.0,-100.00,ESE,119,2.0,16.0,14,0.00,,,0.00,1.000000,,2013-06-19 04:42:00,
2013-06-18 21:52:00,86.0,38.0,-100.00,ESE,117,3.0,8.0,18,0.00,,,0.00,0.000000,,2013-06-19 04:52:00,
2013-06-18 22:11:00,86.0,38.0,-100.00,ESE,117,3.0,8.0,18,0.00,,,0.00,0.000000,,2013-06-19 05:11:00,
2013-06-18 22:22:00,86.0,38.0,-100.00,ESE,117,3.0,8.0,18,0.00,,,0.00,0.000000,,2013-06-19 05:22:00,
2013-06-18 22:32:00,86.0,38.0,-100.00,ESE,117,3.0,8.0,18,0.00,,,0.00,0.000000,,2013-06-19 05:32:00,
2013-06-18 22:42:00,86.0,38.0,-100.00,ESE,117,3.0,8.0,18,0.00,,,0.00,0.000000,,2013-06-19 05:42:00,
2013-06-18 22:52:00,85.0,39.0,-100.00,East,82,3.0,9.0,20,0.00,,,0.00,0.000000,,2013-06-19 05:52:00,
2013-06-18 23:21:00,85.0,39.0,-100.00,East,82,3.0,9.0,20,0.00,,,0.00,0.000000,,2013-06-19 06:21:00,
2013-06-18 23:33:00,85.0,39.0,-100.00,East,82,3.0,9.0,20,0.00,,,0.00,0.000000,,2013-06-19 06:33:00,
2013-06-18 23:42:00,85.0,39.0,-100.00,East,82,3.0,9.0,20,0.00,,,0.00,0.000000,,2013-06-19 06:42:00,
2013-06-18 23:52:00,80.0,40.0,-100.00,ESE,114,1.0,6.0,24,0.00,,,0.00,0.000000,,2013-06-19 06:52:00,